Tracking 29892 objects as of 21-Nov-2024
HD Live streaming from Space Station
objects crossing your sky now

STARLINK-4606

Track STARLINK-4606 now!
10-day predictions
STARLINK-4606 is classified as:


NORAD ID: 53632
Int'l Code: 2022-104AW
Perigee: 545.9 km
Apogee: 547.9 km
Inclination: 53.2 °
Period: 95.4 minutes
Semi major axis: 6917 km
RCS: Unknown
Launch date: August 28, 2022
Source: United States (US)
Launch site: AIR FORCE EASTERN TEST RANGE (AFETR)
Your satellite tracking list
Your tracking list is empty




NASA's NSSDC Master Catalog

Two Line Element Set (TLE):
1 53632U 22104AW  24325.66347346  .00000735  00000-0  64257-4 0  9996
2 53632  53.2164 192.0868 0001445  92.7129 267.4029 15.08837233124669
Source of the keplerian elements: AFSPC